14785 registros encontrados.
Tendencias del filtro actual

Gráficas del histórico

Cargando datos para la gráfica…
Temperatura y humedad
Batería y lluvia
ID Dispositivo Fecha Hora sysDT Temperatura 1 Temperatura 2 Humedad Batería Nivel de lluvia
13585 ciricote19 2026-05-07 12:19:31 2026-05-07 18:19:31 26.3 26.7 65.0 4.05 0.0
13584 ciricote19 2026-05-07 12:18:31 2026-05-07 18:18:31 26.3 26.7 65.5 4.03 0.0
13583 ciricote19 2026-05-07 12:17:31 2026-05-07 18:17:31 26.2 26.6 65.0 4.03 0.0
13582 ciricote19 2026-05-07 12:16:31 2026-05-07 18:16:31 26.2 26.6 65.0 4.03 0.0
13581 ciricote11 2026-05-07 12:16:09 2026-05-07 18:16:10 38.8 39.1 42.0 4.06 0.0
13580 ciricote1 2026-05-07 12:16:02 2026-05-07 18:16:02 38.3 38.9 44.0 4.23 0.0
13579 ciricote12 2026-05-07 12:15:43 2026-05-07 18:15:43 38.8 38.7 41.5 4.09 50.0
13578 ciricote19 2026-05-07 12:15:31 2026-05-07 18:15:31 26.2 26.6 65.0 4.05 0.0
13577 ciricote19 2026-05-07 12:14:31 2026-05-07 18:14:31 26.1 26.6 65.0 4.03 0.0
13576 ciricote19 2026-05-07 12:13:31 2026-05-07 18:13:31 26.2 26.6 65.0 4.03 0.0
13575 ciricote19 2026-05-07 12:12:31 2026-05-07 18:12:31 26.2 26.5 65.0 4.03 0.0
13574 ciricote19 2026-05-07 12:11:31 2026-05-07 18:11:31 26.2 26.6 65.0 4.05 0.0
13573 ciricote19 2026-05-07 12:10:31 2026-05-07 18:10:31 26.2 26.6 65.0 4.03 0.0
13572 ciricote19 2026-05-07 12:09:31 2026-05-07 18:09:31 26.2 26.6 65.0 4.03 0.0
13571 ciricote19 2026-05-07 12:08:31 2026-05-07 18:08:31 26.2 26.6 65.0 4.03 0.0
13570 ciricote19 2026-05-07 12:07:31 2026-05-07 18:07:31 26.2 26.6 65.5 4.05 0.0
13569 ciricote19 2026-05-07 12:06:31 2026-05-07 18:06:31 26.2 26.6 65.5 4.03 0.0
13568 ciricote19 2026-05-07 12:05:31 2026-05-07 18:05:31 26.2 26.6 65.5 4.03 0.0
13567 ciricote19 2026-05-07 12:04:31 2026-05-07 18:04:31 26.2 26.5 65.5 4.03 0.0
13566 ciricote19 2026-05-07 12:03:31 2026-05-07 18:03:31 26.2 26.6 65.5 4.03 0.0
13565 ciricote19 2026-05-07 12:02:31 2026-05-07 18:02:31 26.2 26.6 65.5 4.03 0.0
13564 ciricote19 2026-05-07 12:01:31 2026-05-07 18:01:31 26.2 26.6 65.5 4.03 0.0
13563 ciricote11 2026-05-07 12:01:10 2026-05-07 18:01:10 36.6 37.2 45.0 4.06 0.0
13562 ciricote1 2026-05-07 12:01:09 2026-05-07 18:01:09 36.8 37.2 46.5 4.23 0.0
13561 ciricote12 2026-05-07 12:01:06 2026-05-07 18:01:06 36.9 37.1 44.5 4.09 50.0
13560 ciricote19 2026-05-07 12:00:31 2026-05-07 18:00:31 26.2 26.6 65.0 4.03 0.0
13559 ciricote19 2026-05-07 11:59:31 2026-05-07 17:59:31 26.3 26.6 65.5 4.03 0.0
13558 ciricote19 2026-05-07 11:58:31 2026-05-07 17:58:31 26.3 26.6 65.5 4.03 0.0
13557 ciricote19 2026-05-07 11:57:31 2026-05-07 17:57:31 26.3 26.6 65.5 4.03 0.0
13556 ciricote19 2026-05-07 11:56:31 2026-05-07 17:56:31 26.2 26.6 65.5 4.03 0.0
13555 ciricote19 2026-05-07 11:55:31 2026-05-07 17:55:31 26.2 26.6 65.5 4.03 0.0
13554 ciricote19 2026-05-07 11:54:31 2026-05-07 17:54:31 26.2 26.6 65.5 4.03 0.0
13553 ciricote19 2026-05-07 11:53:31 2026-05-07 17:53:31 26.2 26.6 65.5 4.03 0.0
13552 ciricote19 2026-05-07 11:52:31 2026-05-07 17:52:31 26.1 26.5 65.5 4.03 0.0
13551 ciricote19 2026-05-07 11:51:31 2026-05-07 17:51:31 26.2 26.5 65.5 4.03 0.0
13550 ciricote19 2026-05-07 11:50:31 2026-05-07 17:50:31 26.1 26.5 65.5 4.03 0.0
13549 ciricote19 2026-05-07 11:49:31 2026-05-07 17:49:31 26.1 26.5 65.5 4.05 0.0
13548 ciricote19 2026-05-07 11:48:31 2026-05-07 17:48:31 26.2 26.5 65.5 4.05 0.0
13547 ciricote19 2026-05-07 11:47:31 2026-05-07 17:47:31 26.2 26.5 65.5 4.05 0.0
13546 ciricote11 2026-05-07 11:46:38 2026-05-07 17:46:38 35.4 36.5 47.0 4.06 0.0
13545 ciricote12 2026-05-07 11:46:37 2026-05-07 17:46:37 36.6 36.5 45.5 4.09 50.0
13544 ciricote19 2026-05-07 11:46:31 2026-05-07 17:46:31 26.1 26.5 65.5 4.03 0.0
13543 ciricote11 2026-05-07 11:46:09 2026-05-07 17:46:10 35.6 36.4 46.5 4.06 0.0
13542 ciricote1 2026-05-07 11:46:09 2026-05-07 17:46:09 36.1 36.5 48.0 4.21 0.0
13541 ciricote12 2026-05-07 11:46:06 2026-05-07 17:46:06 36.6 36.6 45.0 4.09 50.0
13540 ciricote19 2026-05-07 11:45:31 2026-05-07 17:45:31 26.1 26.5 65.5 4.03 0.0
13539 ciricote19 2026-05-07 11:44:31 2026-05-07 17:44:31 26.2 26.5 65.5 4.03 0.0
13538 ciricote19 2026-05-07 11:43:31 2026-05-07 17:43:31 26.1 26.5 65.0 4.03 0.0
13537 ciricote19 2026-05-07 11:42:31 2026-05-07 17:42:31 26.2 26.5 65.5 4.03 0.0
13536 ciricote19 2026-05-07 11:41:31 2026-05-07 17:41:31 26.1 26.5 65.0 4.03 0.0
13535 ciricote19 2026-05-07 11:40:31 2026-05-07 17:40:31 26.1 26.5 65.5 4.03 0.0
13534 ciricote19 2026-05-07 11:39:31 2026-05-07 17:39:31 26.1 26.5 65.0 4.03 0.0
13533 ciricote19 2026-05-07 11:38:31 2026-05-07 17:38:31 26.1 26.5 65.0 4.03 0.0
13532 ciricote19 2026-05-07 11:37:31 2026-05-07 17:37:31 26.1 26.5 65.0 4.03 0.0
13531 ciricote19 2026-05-07 11:36:31 2026-05-07 17:36:31 26.1 26.5 65.0 4.03 0.0
13530 ciricote19 2026-05-07 11:35:31 2026-05-07 17:35:31 26.1 26.5 65.0 4.05 0.0
13529 ciricote19 2026-05-07 11:34:31 2026-05-07 17:34:31 26.1 26.5 65.0 4.03 0.0
13528 ciricote19 2026-05-07 11:33:31 2026-05-07 17:33:31 26.1 26.5 65.0 4.03 0.0
13527 ciricote19 2026-05-07 11:32:31 2026-05-07 17:32:31 26.1 26.5 65.0 4.03 0.0
13526 ciricote19 2026-05-07 11:31:31 2026-05-07 17:31:31 26.1 26.5 65.0 4.03 0.0
13525 ciricote11 2026-05-07 11:31:09 2026-05-07 17:31:09 36.8 37.2 47.5 4.06 0.0
13524 ciricote1 2026-05-07 11:31:09 2026-05-07 17:31:09 36.9 37.2 49.0 4.21 0.0
13523 ciricote12 2026-05-07 11:31:06 2026-05-07 17:31:06 37.3 37.1 46.0 4.09 50.0
13522 ciricote19 2026-05-07 11:30:31 2026-05-07 17:30:31 26.1 26.5 65.0 4.03 0.0
13521 ciricote19 2026-05-07 11:29:31 2026-05-07 17:29:31 26.1 26.5 65.0 4.03 0.0
13520 ciricote19 2026-05-07 11:28:31 2026-05-07 17:28:31 26.1 26.5 65.0 4.03 0.0
13519 ciricote19 2026-05-07 11:27:31 2026-05-07 17:27:31 26.1 26.5 65.0 4.03 0.0
13518 ciricote19 2026-05-07 11:26:31 2026-05-07 17:26:31 26.1 26.5 65.0 4.03 0.0
13517 ciricote19 2026-05-07 11:24:31 2026-05-07 17:24:31 26.1 26.4 65.0 4.03 0.0
13516 ciricote19 2026-05-07 11:23:31 2026-05-07 17:23:31 26.1 26.4 65.0 4.03 0.0
13515 ciricote19 2026-05-07 11:22:31 2026-05-07 17:22:31 26.1 26.4 65.0 4.03 0.0
13514 ciricote19 2026-05-07 11:21:31 2026-05-07 17:21:31 26.1 26.4 65.0 4.03 0.0
13513 ciricote19 2026-05-07 11:20:31 2026-05-07 17:20:31 26.1 26.4 65.0 4.05 0.0
13512 ciricote19 2026-05-07 11:19:31 2026-05-07 17:19:31 26.1 26.4 65.0 4.03 0.0
13511 ciricote19 2026-05-07 11:18:31 2026-05-07 17:18:31 26.0 26.3 65.0 4.03 0.0
13510 ciricote19 2026-05-07 11:17:31 2026-05-07 17:17:31 26.1 26.3 65.0 4.03 0.0
13509 ciricote19 2026-05-07 11:16:31 2026-05-07 17:16:31 26.1 26.4 65.0 4.05 0.0
13508 ciricote11 2026-05-07 11:16:09 2026-05-07 17:16:10 36.5 36.5 49.0 4.06 0.0
13507 ciricote12 2026-05-07 11:16:06 2026-05-07 17:16:06 37.1 36.7 47.5 4.09 50.0
13506 ciricote1 2026-05-07 11:15:53 2026-05-07 17:15:53 37.0 36.6 50.5 4.21 0.0
13505 ciricote19 2026-05-07 11:15:31 2026-05-07 17:15:31 26.1 26.4 64.5 4.03 0.0
13504 ciricote19 2026-05-07 11:14:31 2026-05-07 17:14:31 26.0 26.3 64.5 4.03 0.0
13503 ciricote19 2026-05-07 11:13:31 2026-05-07 17:13:31 26.0 26.3 64.5 4.05 0.0
13502 ciricote19 2026-05-07 11:12:31 2026-05-07 17:12:31 26.0 26.3 64.0 4.05 0.0
13501 ciricote19 2026-05-07 11:11:31 2026-05-07 17:11:31 26.0 26.3 64.0 4.05 0.0
13500 ciricote19 2026-05-07 11:10:31 2026-05-07 17:10:31 25.9 26.3 64.0 4.05 0.0
13499 ciricote19 2026-05-07 11:09:31 2026-05-07 17:09:31 26.0 26.3 64.0 4.03 0.0
13498 ciricote19 2026-05-07 11:08:31 2026-05-07 17:08:31 26.0 26.3 64.0 4.05 0.0
13497 ciricote19 2026-05-07 11:07:31 2026-05-07 17:07:31 26.0 26.3 64.0 4.05 0.0
13496 ciricote19 2026-05-07 11:06:31 2026-05-07 17:06:31 26.0 26.3 64.5 4.05 0.0
13495 ciricote19 2026-05-07 11:05:31 2026-05-07 17:05:31 26.0 26.3 64.5 4.05 0.0
13494 ciricote19 2026-05-07 11:04:31 2026-05-07 17:04:31 26.0 26.3 64.5 4.05 0.0
13493 ciricote19 2026-05-07 11:03:31 2026-05-07 17:03:31 26.0 26.4 64.5 4.05 0.0
13492 ciricote19 2026-05-07 11:02:31 2026-05-07 17:02:31 26.0 26.3 64.5 4.05 0.0
13491 ciricote19 2026-05-07 11:01:31 2026-05-07 17:01:31 26.1 26.3 64.5 4.05 0.0
13490 ciricote1 2026-05-07 11:01:22 2026-05-07 17:01:22 37.1 36.8 51.5 4.21 0.0
13489 ciricote11 2026-05-07 11:01:09 2026-05-07 17:01:10 36.2 36.6 49.5 4.06 0.0
13488 ciricote12 2026-05-07 11:01:06 2026-05-07 17:01:06 36.7 36.4 49.0 4.09 50.0
13487 ciricote1 2026-05-07 11:00:53 2026-05-07 17:00:53 37.0 36.8 50.5 4.21 0.0
13486 ciricote19 2026-05-07 11:00:31 2026-05-07 17:00:31 26.0 26.3 64.5 4.05 0.0
13485 ciricote19 2026-05-07 10:59:31 2026-05-07 16:59:31 26.0 26.3 64.5 4.05 0.0
13484 ciricote19 2026-05-07 10:58:31 2026-05-07 16:58:31 26.0 26.3 64.5 4.05 0.0
13483 ciricote19 2026-05-07 10:57:31 2026-05-07 16:57:31 26.0 26.4 64.5 4.05 0.0
13482 ciricote19 2026-05-07 10:56:31 2026-05-07 16:56:31 26.1 26.4 64.5 4.05 0.0
13481 ciricote19 2026-05-07 10:55:31 2026-05-07 16:55:31 26.1 26.3 64.5 4.05 0.0
13480 ciricote19 2026-05-07 10:54:31 2026-05-07 16:54:31 26.1 26.3 65.0 4.05 0.0
13479 ciricote19 2026-05-07 10:53:31 2026-05-07 16:53:31 26.1 26.4 65.0 4.05 0.0
13478 ciricote19 2026-05-07 10:52:31 2026-05-07 16:52:31 26.1 26.4 64.5 4.05 0.0
13477 ciricote19 2026-05-07 10:51:31 2026-05-07 16:51:31 26.0 26.4 64.5 4.05 0.0
13476 ciricote19 2026-05-07 10:50:31 2026-05-07 16:50:31 26.0 26.4 64.5 4.05 0.0
13475 ciricote19 2026-05-07 10:49:31 2026-05-07 16:49:31 26.0 26.4 64.5 4.05 0.0
13474 ciricote19 2026-05-07 10:48:31 2026-05-07 16:48:31 26.0 26.5 64.5 4.05 0.0
13473 ciricote19 2026-05-07 10:47:31 2026-05-07 16:47:31 26.0 26.5 64.5 4.05 0.0
13472 ciricote19 2026-05-07 10:46:31 2026-05-07 16:46:31 26.0 26.4 64.5 4.05 0.0
13471 ciricote1 2026-05-07 10:46:07 2026-05-07 16:46:07 36.5 36.0 54.0 4.21 0.0
13470 ciricote12 2026-05-07 10:45:59 2026-05-07 16:45:59 36.4 35.9 50.5 4.09 50.0
13469 ciricote11 2026-05-07 10:45:47 2026-05-07 16:45:47 36.3 35.8 52.0 4.06 0.0
13468 ciricote19 2026-05-07 10:45:31 2026-05-07 16:45:31 26.0 26.5 64.5 4.05 0.0
13467 ciricote19 2026-05-07 10:44:31 2026-05-07 16:44:31 26.1 26.5 64.0 4.05 0.0
13466 ciricote19 2026-05-07 10:43:31 2026-05-07 16:43:31 26.1 26.5 64.0 4.05 0.0
13465 ciricote19 2026-05-07 10:42:31 2026-05-07 16:42:31 26.1 26.5 64.0 4.05 0.0
13464 ciricote19 2026-05-07 10:41:31 2026-05-07 16:41:31 26.1 26.5 64.0 4.05 0.0
13463 ciricote19 2026-05-07 10:40:31 2026-05-07 16:40:31 26.1 26.5 64.0 4.05 0.0
13462 ciricote19 2026-05-07 10:39:31 2026-05-07 16:39:31 26.1 26.6 63.5 4.05 0.0
13461 ciricote19 2026-05-07 10:38:31 2026-05-07 16:38:31 26.1 26.6 63.5 4.05 0.0
13460 ciricote19 2026-05-07 10:37:31 2026-05-07 16:37:31 26.1 26.6 63.5 4.05 0.0
13459 ciricote19 2026-05-07 10:36:31 2026-05-07 16:36:31 26.2 26.6 63.0 4.05 0.0
13458 ciricote19 2026-05-07 10:35:31 2026-05-07 16:35:31 26.2 26.6 63.0 4.05 0.0
13457 ciricote19 2026-05-07 10:34:31 2026-05-07 16:34:31 26.2 26.7 63.0 4.05 0.0
13456 ciricote19 2026-05-07 10:33:31 2026-05-07 16:33:31 26.2 26.7 63.0 4.05 0.0
13455 ciricote19 2026-05-07 10:32:31 2026-05-07 16:32:31 26.3 26.7 62.5 4.05 0.0
13454 ciricote19 2026-05-07 10:31:31 2026-05-07 16:31:31 26.2 26.7 62.5 4.05 0.0
13453 ciricote12 2026-05-07 10:30:59 2026-05-07 16:30:59 37.0 36.2 51.0 4.08 50.0
13452 ciricote11 2026-05-07 10:30:46 2026-05-07 16:30:47 36.1 35.9 52.0 4.06 0.0
13451 ciricote1 2026-05-07 10:30:44 2026-05-07 16:30:44 35.9 36.0 55.0 4.21 0.0
13450 ciricote19 2026-05-07 10:30:31 2026-05-07 16:30:31 26.2 26.7 62.5 4.05 0.0
13449 ciricote19 2026-05-07 10:29:31 2026-05-07 16:29:31 26.3 26.7 62.5 4.05 0.0
13448 ciricote19 2026-05-07 10:28:31 2026-05-07 16:28:31 26.2 26.7 62.5 4.05 0.0
13447 ciricote19 2026-05-07 10:27:31 2026-05-07 16:27:31 26.3 26.7 62.5 4.05 0.0
13446 ciricote19 2026-05-07 10:26:31 2026-05-07 16:26:31 26.3 26.8 62.5 4.05 0.0
13445 ciricote19 2026-05-07 10:25:31 2026-05-07 16:25:31 26.3 26.8 62.5 4.05 0.0
13444 ciricote19 2026-05-07 10:24:31 2026-05-07 16:24:31 26.3 26.8 62.5 4.05 0.0
13443 ciricote19 2026-05-07 10:23:31 2026-05-07 16:23:31 26.3 26.8 62.5 4.05 0.0
13442 ciricote19 2026-05-07 10:22:31 2026-05-07 16:22:31 26.3 26.8 62.5 4.05 0.0
13441 ciricote19 2026-05-07 10:21:31 2026-05-07 16:21:31 26.4 26.8 62.5 4.05 0.0
13440 ciricote19 2026-05-07 10:20:31 2026-05-07 16:20:31 26.4 26.8 62.5 4.05 0.0
13439 ciricote19 2026-05-07 10:19:31 2026-05-07 16:19:31 26.5 26.8 63.0 4.05 0.0
13438 ciricote19 2026-05-07 10:18:31 2026-05-07 16:18:31 26.4 26.8 63.0 4.05 0.0
13437 ciricote19 2026-05-07 10:17:31 2026-05-07 16:17:31 26.4 26.8 63.0 4.05 0.0
13436 ciricote19 2026-05-07 10:16:31 2026-05-07 16:16:31 26.5 26.8 63.0 4.05 0.0
13435 ciricote12 2026-05-07 10:16:06 2026-05-07 16:16:06 35.3 34.6 54.5 4.08 50.0
13434 ciricote11 2026-05-07 10:15:46 2026-05-07 16:15:47 34.0 34.2 56.0 4.06 0.0
13433 ciricote1 2026-05-07 10:15:44 2026-05-07 16:15:44 34.3 34.2 59.0 4.21 0.0
13432 ciricote19 2026-05-07 10:15:31 2026-05-07 16:15:31 26.4 26.8 63.0 4.05 0.0
13431 ciricote19 2026-05-07 10:14:31 2026-05-07 16:14:31 26.4 26.8 63.0 4.05 0.0
13430 ciricote19 2026-05-07 10:13:31 2026-05-07 16:13:31 26.4 26.8 63.0 4.05 0.0
13429 ciricote19 2026-05-07 10:12:31 2026-05-07 16:12:31 26.3 26.8 62.5 4.05 0.0
13428 ciricote19 2026-05-07 10:11:31 2026-05-07 16:11:31 26.3 26.9 61.5 4.05 0.0
13427 ciricote19 2026-05-07 10:10:31 2026-05-07 16:10:31 26.3 26.8 61.0 4.05 0.0
13426 ciricote19 2026-05-07 10:09:31 2026-05-07 16:09:31 26.3 26.9 61.0 4.05 0.0
13425 ciricote19 2026-05-07 10:08:31 2026-05-07 16:08:31 26.3 27.0 62.0 4.05 0.0
13424 ciricote19 2026-05-07 10:07:31 2026-05-07 16:07:31 26.5 26.9 61.0 4.05 0.0
13423 ciricote19 2026-05-07 10:06:31 2026-05-07 16:06:31 26.4 26.9 61.0 4.05 0.0
13422 ciricote19 2026-05-07 10:05:31 2026-05-07 16:05:31 26.5 27.0 61.5 4.05 0.0
13421 ciricote19 2026-05-07 10:04:31 2026-05-07 16:04:31 26.5 27.0 61.5 4.05 0.0
13420 ciricote19 2026-05-07 10:03:31 2026-05-07 16:03:31 26.5 27.1 62.0 4.05 0.0
13419 ciricote19 2026-05-07 10:02:31 2026-05-07 16:02:31 26.5 27.1 61.5 4.05 0.0
13418 ciricote19 2026-05-07 10:01:31 2026-05-07 16:01:31 26.6 27.1 62.0 4.05 0.0
13417 ciricote12 2026-05-07 10:01:06 2026-05-07 16:01:06 35.8 35.0 56.0 4.08 50.0
13416 ciricote1 2026-05-07 10:00:51 2026-05-07 16:00:51 35.1 35.1 58.5 4.21 0.0
13415 ciricote11 2026-05-07 10:00:47 2026-05-07 16:00:47 34.7 34.9 55.5 4.06 0.0
13414 ciricote19 2026-05-07 10:00:31 2026-05-07 16:00:31 26.6 27.1 62.0 4.05 0.0
13413 ciricote19 2026-05-07 09:59:31 2026-05-07 15:59:31 26.6 27.2 62.0 4.05 0.0
13412 ciricote19 2026-05-07 09:58:31 2026-05-07 15:58:31 26.8 27.2 62.0 4.05 0.0
13411 ciricote19 2026-05-07 09:57:31 2026-05-07 15:57:31 26.8 27.2 62.5 4.03 0.0
13410 ciricote19 2026-05-07 09:56:31 2026-05-07 15:56:31 26.9 27.2 62.5 4.05 0.0
13409 ciricote19 2026-05-07 09:55:31 2026-05-07 15:55:31 27.1 27.1 63.0 4.05 0.0
13408 ciricote19 2026-05-07 09:54:31 2026-05-07 15:54:31 27.3 27.1 64.0 4.05 0.0
13407 ciricote19 2026-05-07 09:53:31 2026-05-07 15:53:31 27.3 27.1 65.0 4.05 0.0
13406 ciricote19 2026-05-07 09:52:38 2026-05-07 15:52:38 27.4 27.1 68.5 4.05 0.0
13405 ciricote11 2026-05-07 09:46:09 2026-05-07 15:46:10 33.5 33.8 58.5 4.06 0.0
13404 ciricote12 2026-05-07 09:46:06 2026-05-07 15:46:06 34.3 33.8 58.0 4.08 50.0
13403 ciricote1 2026-05-07 09:45:58 2026-05-07 15:45:58 34.6 34.0 61.0 4.21 0.0
13402 ciricote11 2026-05-07 09:31:09 2026-05-07 15:31:10 33.5 33.7 60.0 4.06 0.0
13401 ciricote12 2026-05-07 09:31:06 2026-05-07 15:31:06 34.2 33.4 60.0 4.08 50.0
13400 ciricote1 2026-05-07 09:30:51 2026-05-07 15:30:51 34.8 33.9 62.5 4.21 0.0
13399 ciricote11 2026-05-07 09:16:09 2026-05-07 15:16:10 32.3 32.8 62.0 4.06 0.0
13398 ciricote12 2026-05-07 09:15:59 2026-05-07 15:15:59 33.0 32.3 62.5 4.08 50.0
13397 ciricote1 2026-05-07 09:15:58 2026-05-07 15:15:58 34.1 33.3 63.5 4.21 0.0
13396 ciricote12 2026-05-07 09:00:59 2026-05-07 15:00:59 33.5 32.8 63.0 4.06 50.0
13395 ciricote1 2026-05-07 09:00:56 2026-05-07 15:00:56 34.5 33.4 64.5 4.21 0.0
13394 ciricote11 2026-05-07 09:00:47 2026-05-07 15:00:47 32.4 33.1 62.5 4.06 0.0
13393 ciricote1 2026-05-07 08:46:01 2026-05-07 14:46:01 34.0 33.0 66.5 4.21 0.0
13392 ciricote11 2026-05-07 08:45:53 2026-05-07 14:45:54 32.2 32.5 65.0 4.06 0.0
13391 ciricote12 2026-05-07 08:45:52 2026-05-07 14:45:52 32.5 32.1 66.0 4.06 50.0
13390 ciricote11 2026-05-07 08:31:08 2026-05-07 14:31:08 31.0 31.1 72.0 4.05 0.0
13389 ciricote12 2026-05-07 08:30:52 2026-05-07 14:30:52 31.5 30.9 71.0 4.06 50.0
13388 ciricote1 2026-05-07 08:30:50 2026-05-07 14:30:50 33.4 31.5 74.0 4.21 0.0
13387 ciricote12 2026-05-07 08:15:59 2026-05-07 14:15:59 31.3 30.2 74.0 4.06 50.0
13386 ciricote1 2026-05-07 08:15:55 2026-05-07 14:15:55 31.3 30.5 78.0 4.21 0.0
Página 7 de 74